Вернуться в каталог

STARLINK-32870

АктивенСвязьVLEO
NORAD 63018·PAYLOAD·🇺🇸 United States

Запущен Feb 15, 2025 с Cape Canaveral Space Force Station

Loading…

Ближайшие Пролёты (ближайшие 24 часа)

TLE

СвежийSource: CelesTrak SupGP

Эпоха: Sep 14, 2026, 20:48 UTC

1 63018C 25032P   26257.86715278 -.00000964  00000+0 -34913-4 0  2577
2 63018  43.0024 347.7509 0001473 270.1646   8.3626 15.27575093    19

Отслеживайте STARLINK-32870 в реальном времени с AllMySat

Download on the App Store